| time (UTC) | temp C | wind direction | speed KPH | gust KPH | rain 1hr cm | rain 24hr cm | rain mn cm | humidity % | barometer mb |
| 20260507162003 | 19 | 183 | 3.2 | 11.3 | 0.00 | 0.00 | 0.00 | 60 | 1012.0 |
| 20260507161003 | 20 | 194 | 3.2 | 9.7 | 0.00 | 0.00 | 0.00 | 58 | 1012.1 |
| 20260507160003 | 21 | 258 | 1.6 | 8.0 | 0.00 | 0.00 | 0.00 | 57 | 1012.0 |
| 20260507155003 | 20 | 248 | 1.6 | 12.9 | 0.00 | 0.00 | 0.00 | 57 | 1012.0 |
| 20260507154003 | 20 | 288 | 3.2 | 12.9 | 0.00 | 0.00 | 0.00 | 60 | 1012.1 |
| 20260507153003 | 20 | 241 | 1.6 | 8.0 | 0.00 | 0.00 | 0.00 | 58 | 1011.9 |
| 20260507152003 | 20 | 173 | 1.6 | 8.0 | 0.00 | 0.00 | 0.00 | 60 | 1012.2 |
| 20260507151003 | 20 | 230 | 1.6 | 9.7 | 0.00 | 0.00 | 0.00 | 62 | 1012.1 |
| 20260507150004 | 21 | 225 | 1.6 | 6.4 | 0.00 | 0.00 | 0.00 | 58 | 1012.3 |
| 20260507145003 | 20 | 194 | 3.2 | 11.3 | 0.00 | 0.00 | 0.00 | 61 | 1012.2 |
| 20260507144003 | 20 | 191 | 3.2 | 12.9 | 0.00 | 0.00 | 0.00 | 61 | 1012.3 |
| 20260507143003 | 20 | 190 | 3.2 | 12.9 | 0.00 | 0.00 | 0.00 | 55 | 1012.5 |
| 20260507142003 | 19 | 167 | 3.2 | 11.3 | 0.00 | 0.00 | 0.00 | 59 | 1012.4 |
| 20260507141003 | 19 | 167 | 3.2 | 17.7 | 0.00 | 0.00 | 0.00 | 62 | 1012.4 |
| 20260507140004 | 19 | 169 | 3.2 | 12.9 | 0.00 | 0.00 | 0.00 | 60 | 1012.5 |
| 20260506215003 | 11 | 225 | 0.0 | 3.2 | 0.00 | 0.03 | 0.03 | 83 | 1015.0 |
| 20260506214003 | 11 | 0 | 0.0 | 0.0 | 0.00 | 0.03 | 0.03 | 82 | 1015.1 |
| 20260506213004 | 11 | 0 | 0.0 | 0.0 | 0.00 | 0.03 | 0.03 | 82 | 1015.1 |
| 20260506212004 | 11 | 0 | 0.0 | 0.0 | 0.00 | 0.03 | 0.03 | 81 | 1014.9 |
| 20260506211003 | 12 | 225 | 0.0 | 3.2 | 0.00 | 0.03 | 0.03 | 81 | 1014.8 |
| 20260506210003 | 12 | 228 | 0.0 | 4.8 | 0.00 | 0.03 | 0.03 | 80 | 1014.9 |
| 20260506205003 | 12 | 135 | 0.0 | 4.8 | 0.00 | 0.03 | 0.03 | 80 | 1014.8 |
| 20260506204004 | 12 | 135 | 0.0 | 4.8 | 0.00 | 0.03 | 0.03 | 80 | 1014.6 |
| 20260506203003 | 12 | 147 | 0.0 | 8.0 | 0.00 | 0.03 | 0.03 | 80 | 1014.5 |
| 20260506202003 | 12 | 180 | 0.0 | 3.2 | 0.00 | 0.03 | 0.03 | 80 | 1014.4 |
| 20260506201003 | 12 | 180 | 0.0 | 3.2 | 0.00 | 0.03 | 0.03 | 79 | 1014.2 |
| 20260506200004 | 12 | 270 | 0.0 | 3.2 | 0.00 | 0.03 | 0.03 | 79 | 1014.0 |
| 20260506195003 | 12 | 0 | 0.0 | 0.0 | 0.00 | 0.03 | 0.03 | 80 | 1013.9 |
| 20260506194003 | 12 | 0 | 0.0 | 0.0 | 0.00 | 0.03 | 0.03 | 80 | 1013.7 |
| 20260506193003 | 13 | 0 | 0.0 | 0.0 | 0.00 | 0.03 | 0.03 | 80 | 1013.3 |
| 20260506192003 | 13 | 360 | 0.0 | 3.2 | 0.00 | 0.03 | 0.03 | 79 | 1013.3 |
| 20260506191003 | 14 | 350 | 1.6 | 6.4 | 0.00 | 0.05 | 0.03 | 76 | 1013.1 |
| 20260506190004 | 14 | 348 | 1.6 | 6.4 | 0.00 | 0.05 | 0.03 | 69 | 1013.0 |
| 20260506185003 | 14 | 123 | 1.6 | 6.4 | 0.00 | 0.05 | 0.03 | 70 | 1012.9 |
| 20260506184003 | 15 | 168 | 0.0 | 6.4 | 0.00 | 0.05 | 0.03 | 69 | 1012.5 |
| 20260506183003 | 15 | 180 | 0.0 | 3.2 | 0.00 | 0.13 | 0.03 | 68 | 1012.4 |
| 20260506182003 | 15 | 180 | 0.0 | 3.2 | 0.00 | 0.13 | 0.03 | 66 | 1012.1 |
| 20260506181003 | 15 | 171 | 1.6 | 9.7 | 0.00 | 0.13 | 0.03 | 64 | 1011.9 |
| 20260506180004 | 15 | 183 | 3.2 | 16.1 | 0.00 | 0.13 | 0.03 | 63 | 1011.9 |
| 20260506175003 | 16 | 195 | 3.2 | 9.7 | 0.00 | 0.13 | 0.03 | 62 | 1011.8 |
| 20260506174003 | 16 | 197 | 3.2 | 12.9 | 0.00 | 0.13 | 0.03 | 61 | 1011.6 |
| 20260506173003 | 16 | 205 | 3.2 | 11.3 | 0.00 | 0.13 | 0.03 | 60 | 1011.5 |
| 20260506172003 | 17 | 180 | 6.4 | 17.7 | 0.00 | 0.15 | 0.03 | 60 | 1011.4 |
| 20260506171003 | 17 | 186 | 4.8 | 17.7 | 0.00 | 0.15 | 0.03 | 57 | 1011.5 |
| 20260506170003 | 17 | 189 | 6.4 | 16.1 | 0.00 | 0.15 | 0.03 | 57 | 1011.3 |
| 20260506165003 | 17 | 202 | 3.2 | 11.3 | 0.00 | 0.18 | 0.03 | 55 | 1011.5 |
| 20260506164003 | 17 | 205 | 6.4 | 16.1 | 0.00 | 0.18 | 0.03 | 57 | 1011.3 |
| 20260506163003 | 17 | 199 | 6.4 | 24.1 | 0.00 | 0.18 | 0.03 | 57 | 1011.2 |